Aputiteeq

KL  EN  DA
ASIAQ
Weather Now GREENLAND SURVEY
Updated [WGT/WGST] Temperature [°C] Wind [m/s] Air pressure [hPa] Relative humidity [%] Precipitation [mm]
Present Wind chill Speed Max
18.10 23:00-3,0-6,72,6 ⇘3,1101580n/a
18.10 22:00-2,3-5,32,1 ⇒3,1101676n/a
18.10 21:00-2,5-5,52,1 ⇘2,6101672n/a
18.10 20:00-2,4-5,42,1 ⇒2,6101774n/a
18.10 19:00-2,2-5,12,1 ⇘3,6101769n/a
18.10 18:00-2,5-5,52,1 ⇘2,6101875n/a
18.10 17:00-2,7-6,32,6 ⇒3,1101874n/a
18.10 16:00-2,4-6,02,6 ⇘2,6101874n/a
18.10 15:00-1,9-4,82,1 ⇘3,1101971n/a
18.10 14:00-1,1-3,01,5 ⇘2,1101954n/a
18.10 13:00-1,9-4,82,1 ⇘2,1101973n/a
18.10 12:00-1,9-4,82,1 ⇘2,6102069n/a
18.10 11:00-2,1-5,62,6 ⇘3,1102055n/a
18.10 10:00-2,5-6,12,6 ⇘3,1102065n/a
18.10 09:00-3,0-6,72,6 ⇘3,1102072n/a
18.10 08:00-3,0-6,72,6 ⇘3,1102075n/a
18.10 07:00-3,1-6,22,1 ⇘2,6102077n/a
18.10 06:00-3,0-6,72,6 ⇘2,6102075n/a
18.10 05:00-3,2-7,93,6 ⇘4,1102071n/a
18.10 04:00-2,8-7,43,6 ⇘4,1102066n/a
18.10 03:00-3,4-8,13,6 ⇘3,6102073n/a
18.10 02:00-2,9-7,53,6 ⇘4,1102168n/a
18.10 01:00-2,9-6,02,1 ⇓3,6102162n/a
18.10 00:00-2,8-7,43,6 ⇘4,1102169n/a
17.10 23:00-2,7-6,32,6 ⇘3,1102169n/a
Position: (67.78166666666,-32.2841666666)

[Back]